Location: Plainartige
(45.6866°N, 1.7993°E)
Time: 20:12:13
(UTC+00:00)

Resurs 1-3 - Pass Details

Date: 03 March 2021
Orbit: 629 x 633 km, 97.9° (Epoch: 13 April)

Event Time Altitude Azimuth Distance (km) Brightness Sun altitude
Exits shadow 19:38:48 44° 54° (NE) 886 4.0 -21.0°
Drops below altitude 10° 19:42:36 10° 359° (N) 2,027 6.4 -21.6°
Sets 19:44:53 0° 353° (N) 2,940 7.3 -22.0°
